This is the latest recevied weather packets stored in our database for station/object GCEMA. If no packets are shown the sender has not sent any weather packets the latest 10 day(s).
| Time | Temp. | Humidity | Pressure | Rain* | Wind** | Luminosity | Snow |
|---|---|---|---|---|---|---|---|
| 1777904107 | 17.78° C | - | 1006.5 hPa | 0 mm | 0 m/s | - | - |
| 1777903748 | 20° C | - | 1006 hPa | 0 mm | 0 m/s | - | - |
| 1777903569 | 19.44° C | - | 1006.4 hPa | 0 mm | 0 m/s | - | - |
| 1777903389 | 17.78° C | - | 1006.5 hPa | 0 mm | 0 m/s | - | - |
| 1777903207 | 17.78° C | - | 1006.5 hPa | 0 mm | 0 m/s | - | - |
| 1777903027 | 18.33° C | - | 1006.4 hPa | 0 mm | 0 m/s | - | - |
| 1777902848 | 17.78° C | - | 1006.5 hPa | 0 mm | 0 m/s | - | - |
| 1777902668 | 17.22° C | - | 1006.6 hPa | 0 mm | 0 m/s | - | - |
| 1777902489 | 18.33° C | - | 1006.5 hPa | 0 mm | 0 m/s | - | - |
| 1777902306 | 18.33° C | - | 1006.5 hPa | 0 mm | 0 m/s | - | - |
| 1777902127 | 16.67° C | - | 1006.3 hPa | 0 mm | 0 m/s | - | - |
| 1777901947 | 17.78° C | - | 1006.5 hPa | 0 mm | 0 m/s | - | - |
| 1777901767 | 17.22° C | - | 1006.4 hPa | 0 mm | 0 m/s | - | - |
| 1777901588 | 18.89° C | - | 1006.3 hPa | 0 mm | 0 m/s | - | - |
| 1777901406 | 18.33° C | - | 1006.3 hPa | 0 mm | 0 m/s | - | - |
| 1777901226 | 18.89° C | - | 1006.3 hPa | 0 mm | 0 m/s | - | - |
| 1777901046 | 17.22° C | - | 1006.4 hPa | 0 mm | 0 m/s | - | - |
| 1777900687 | 17.22° C | - | 1006.6 hPa | 0 mm | 0 m/s | - | - |
| 1777900506 | 18.33° C | - | 1006.3 hPa | 0 mm | 0 m/s | - | - |
| 1777900325 | 17.22° C | - | 1006.3 hPa | 0 mm | 0 m/s | - | - |
| 1777899966 | 18.33° C | - | 1006.3 hPa | 0 mm | 0 m/s | - | - |
| 1777899787 | 20° C | - | 1006.2 hPa | 0 mm | 0 m/s | - | - |
| 1777899604 | 19.44° C | - | 1006.2 hPa | 0 mm | 0 m/s | - | - |
| 1777899425 | 19.44° C | - | 1006.3 hPa | 0 mm | 0 m/s | - | - |
| 1777899065 | 19.44° C | - | 1006.4 hPa | 0 mm | 0 m/s | - | - |
* Rain latest hour (hover to see other rain measurements)
** Current wind speed in m/s (hover to see current wind gust speed)